GORIZONT 9 [-]

Last updated on Oct. 25, 2020, 5:56 a.m. UTC

1 14940U 84041A   20298.13116084 -.00000029  00000-0  00000-0 0  9992
2 14940  12.5378 329.1166 0002486 222.5040 315.3234  1.00226307101261
UTC
Height (km)
Latitude
Longitude
Inclination
Orbital Period
UTC large
Height (km)
Speed (km/s)
/
Latitude / Longitude
Inclination (degrees)
Orbital Period (minutes)
Azimuth
Elevation
Range (km)
Doppler Factor
iOS Compass Heading
iOS Angle

Next 30 passes for location: Hong Kong

Rise time Rise Azimuth (degrees) Set time Set Azimuth (degrees) Duration Max altitude (degrees)

No matching passes for this satellites